| time (UTC) | temp F | wind direction | speed knots | gust knots | rain 1hr in | rain 24hr in | rain mn in | humidity % | barometer mb |
| 20260509202320 | 64 | 305 | 6.1 | 7.0 | 0.00 | 0.04 | 0.04 | 67 | 1010.8 |
| 20260509201819 | 62 | 285 | 5.2 | 6.1 | 0.00 | 0.04 | 0.04 | 69 | 1010.8 |
| 20260509201316 | 62 | 343 | 10.4 | 13.0 | 0.00 | 0.04 | 0.04 | 70 | 1010.9 |
| 20260509200812 | 61 | 255 | 3.5 | 6.1 | 0.00 | 0.04 | 0.04 | 70 | 1010.8 |
| 20260509200308 | 61 | 335 | 8.7 | 9.6 | 0.00 | 0.04 | 0.04 | 71 | 1010.9 |
| 20260509195804 | 61 | 335 | 5.2 | 7.0 | 0.00 | 0.04 | 0.04 | 70 | 1010.9 |
| 20260509195300 | 62 | 252 | 3.5 | 4.3 | 0.00 | 0.04 | 0.04 | 71 | 1010.8 |
| 20260509194759 | 62 | 308 | 4.3 | 6.1 | 0.00 | 0.04 | 0.04 | 71 | 1010.9 |
| 20260509194255 | 61 | 261 | 2.6 | 2.6 | 0.00 | 0.04 | 0.04 | 71 | 1011.1 |
| 20260509193753 | 62 | 322 | 2.6 | 2.6 | 0.00 | 0.04 | 0.04 | 69 | 1010.9 |
| 20260509193253 | 61 | 257 | 2.6 | 2.6 | 0.00 | 0.04 | 0.04 | 69 | 1011.0 |
| 20260509192749 | 61 | 267 | 2.6 | 2.6 | 0.00 | 0.04 | 0.04 | 69 | 1010.9 |
| 20260509192244 | 60 | 261 | 2.6 | 2.6 | 0.00 | 0.04 | 0.04 | 72 | 1011.2 |
| 20260509191739 | 60 | 293 | 3.5 | 6.1 | 0.00 | 0.04 | 0.04 | 74 | 1011.2 |
| 20260509191236 | 60 | 266 | 0.9 | 1.7 | 0.00 | 0.04 | 0.04 | 74 | 1011.0 |
| 20260509190732 | 60 | 267 | 3.5 | 5.2 | 0.00 | 0.04 | 0.04 | 74 | 1011.3 |
| 20260509190229 | 60 | 266 | 2.6 | 4.3 | 0.00 | 0.04 | 0.04 | 75 | 1010.8 |
| 20260509185727 | 59 | 265 | 2.6 | 4.3 | 0.00 | 0.04 | 0.04 | 73 | 1011.3 |
| 20260509185223 | 60 | 249 | 1.7 | 1.7 | 0.00 | 0.04 | 0.04 | 73 | 1011.1 |
| 20260509184721 | 59 | 313 | 3.5 | 4.3 | 0.00 | 0.04 | 0.04 | 73 | 1011.1 |
| 20260509184218 | 60 | 252 | 0.9 | 1.7 | 0.00 | 0.04 | 0.04 | 73 | 1011.3 |
| 20260509183714 | 60 | 243 | 0.9 | 0.9 | 0.00 | 0.04 | 0.04 | 74 | 1011.2 |
| 20260509183209 | 59 | 210 | 0.0 | 0.0 | 0.00 | 0.04 | 0.04 | 74 | 1011.2 |
| 20260509182705 | 59 | 255 | 0.9 | 1.7 | 0.00 | 0.04 | 0.04 | 74 | 1011.2 |
| 20260509182203 | 59 | 276 | 2.6 | 2.6 | 0.00 | 0.04 | 0.04 | 75 | 1011.3 |
| 20260509181700 | 59 | 257 | 2.6 | 2.6 | 0.00 | 0.04 | 0.04 | 77 | 1011.2 |
| 20260509181158 | 58 | 305 | 2.6 | 2.6 | 0.00 | 0.04 | 0.04 | 77 | 1011.5 |
| 20260509180654 | 58 | 236 | 0.9 | 1.7 | 0.00 | 0.04 | 0.04 | 77 | 1011.2 |
| 20260509180150 | 58 | 256 | 1.7 | 1.7 | 0.00 | 0.04 | 0.04 | 78 | 1011.1 |
| 20260509175646 | 57 | 258 | 0.0 | 0.9 | 0.00 | 0.04 | 0.04 | 77 | 1011.2 |
| 20260509175144 | 57 | 258 | 0.9 | 1.7 | 0.00 | 0.04 | 0.04 | 78 | 1011.4 |
| 20260509174639 | 57 | 265 | 0.9 | 0.9 | 0.00 | 0.04 | 0.04 | 78 | 1011.5 |
| 20260509174134 | 57 | 317 | 4.3 | 6.1 | 0.00 | 0.04 | 0.04 | 79 | 1011.7 |
| 20260509173630 | 57 | 286 | 2.6 | 2.6 | 0.00 | 0.04 | 0.04 | 80 | 1011.4 |
| 20260509173126 | 56 | 314 | 2.6 | 4.3 | 0.00 | 0.04 | 0.04 | 81 | 1011.3 |
| 20260509172623 | 57 | 298 | 3.5 | 4.3 | 0.00 | 0.04 | 0.04 | 84 | 1011.4 |
| 20260509172119 | 57 | 167 | 0.9 | 0.9 | 0.00 | 0.04 | 0.04 | 84 | 1011.6 |
| 20260509171615 | 57 | 251 | 1.7 | 1.7 | 0.00 | 0.04 | 0.04 | 84 | 1011.6 |
| 20260509171111 | 57 | 186 | 0.9 | 1.7 | 0.00 | 0.04 | 0.04 | 84 | 1011.6 |
| 20260509170608 | 57 | 292 | 3.5 | 4.3 | 0.00 | 0.04 | 0.04 | 85 | 1011.7 |
| 20260509170104 | 57 | 246 | 0.0 | 0.0 | 0.00 | 0.04 | 0.04 | 88 | 1011.6 |
| 20260509165602 | 55 | 198 | 0.0 | 0.0 | 0.00 | 0.04 | 0.04 | 88 | 1011.5 |
| 20260509165058 | 55 | 256 | 0.0 | 0.9 | 0.00 | 0.04 | 0.04 | 89 | 1011.7 |
| 20260509164554 | 55 | 258 | 0.0 | 0.9 | 0.00 | 0.04 | 0.04 | 88 | 1011.7 |
| 20260509164050 | 55 | 203 | 0.9 | 1.7 | 0.00 | 0.04 | 0.04 | 89 | 1011.6 |
| 20260509163548 | 55 | 229 | 0.9 | 1.7 | 0.00 | 0.04 | 0.04 | 88 | 1011.7 |
| 20260509163044 | 56 | 201 | 0.0 | 0.9 | 0.00 | 0.04 | 0.04 | 90 | 1011.8 |
| 20260509162541 | 55 | 249 | 0.9 | 0.9 | 0.00 | 0.04 | 0.04 | 88 | 1011.9 |
| 20260509162036 | 56 | 228 | 0.0 | 0.9 | 0.00 | 0.04 | 0.04 | 90 | 1012.0 |
| 20260509161533 | 55 | 253 | 2.6 | 2.6 | 0.00 | 0.04 | 0.04 | 91 | 1012.1 |
| 20260509161028 | 54 | 248 | 1.7 | 1.7 | 0.00 | 0.04 | 0.04 | 92 | 1011.9 |
| 20260509160524 | 54 | 251 | 0.9 | 0.9 | 0.00 | 0.04 | 0.04 | 93 | 1012.3 |
| 20260509160020 | 53 | 263 | 0.9 | 0.9 | 0.00 | 0.04 | 0.04 | 93 | 1011.9 |
| 20260509155516 | 53 | 251 | 0.0 | 0.0 | 0.00 | 0.04 | 0.04 | 94 | 1012.1 |
| 20260509155012 | 53 | 252 | 0.0 | 0.0 | 0.00 | 0.04 | 0.04 | 94 | 1012.4 |
| 20260509154509 | 53 | 258 | 0.9 | 0.9 | 0.00 | 0.04 | 0.04 | 95 | 1012.4 |
| 20260509154007 | 53 | 281 | 0.9 | 0.9 | 0.00 | 0.04 | 0.04 | 94 | 1012.5 |
| 20260509153503 | 53 | 247 | 0.0 | 0.0 | 0.05 | 0.04 | 0.04 | 94 | 1012.5 |
| 20260509153000 | 53 | 269 | 0.9 | 0.9 | 0.05 | 0.04 | 0.04 | 93 | 1012.3 |
| 20260509152455 | 53 | 259 | 0.0 | 0.9 | 0.00 | 0.03 | 0.03 | 93 | 1012.4 |
| 20260509151953 | 53 | 269 | 2.6 | 2.6 | 0.00 | 0.03 | 0.03 | 93 | 1012.5 |
| 20260509151449 | 53 | 267 | 0.9 | 1.7 | 0.00 | 0.03 | 0.03 | 94 | 1012.4 |
| 20260509150947 | 53 | 251 | 0.9 | 0.9 | 0.00 | 0.03 | 0.03 | 94 | 1012.1 |
| 20260509150444 | 53 | 255 | 0.9 | 1.7 | 0.00 | 0.03 | 0.03 | 94 | 1012.1 |
| 20260509145942 | 53 | 243 | 0.0 | 0.0 | 0.00 | 0.03 | 0.03 | 94 | 1012.1 |
| 20260509145437 | 52 | 243 | 0.0 | 0.9 | 0.00 | 0.03 | 0.03 | 94 | 1012.1 |
| 20260509144933 | 52 | 248 | 0.0 | 0.0 | 0.00 | 0.03 | 0.03 | 95 | 1012.3 |
| 20260509144430 | 53 | 247 | 0.0 | 0.9 | 0.00 | 0.03 | 0.03 | 95 | 1012.1 |
| 20260509143927 | 52 | 252 | 0.9 | 1.7 | 0.00 | 0.03 | 0.03 | 96 | 1012.1 |
| 20260509143424 | 52 | 245 | 0.0 | 0.0 | 0.00 | 0.03 | 0.03 | 96 | 1012.1 |
| 20260509142920 | 52 | 238 | 0.0 | 0.0 | 0.00 | 0.03 | 0.03 | 96 | 1012.0 |
| 20260509142417 | 52 | 251 | 0.0 | 0.0 | 0.00 | 0.03 | 0.03 | 97 | 1012.3 |
| 20260509141913 | 51 | 229 | 0.9 | 0.9 | 0.00 | 0.03 | 0.03 | 97 | 1012.4 |
| 20260509141410 | 52 | 211 | 0.0 | 0.0 | 0.00 | 0.03 | 0.03 | 98 | 1012.0 |
| 20260509140907 | 51 | 239 | 0.0 | 0.0 | 0.00 | 0.03 | 0.03 | 99 | 1012.4 |
| 20260509140403 | 51 | 261 | 0.9 | 0.9 | 0.00 | 0.03 | 0.03 | 99 | 1012.3 |
| 20260509135901 | 51 | 251 | 0.0 | 0.0 | 0.00 | 0.03 | 0.03 | 99 | 1012.5 |
| 20260509135358 | 51 | 238 | 0.0 | 0.0 | 0.00 | 0.03 | 0.03 | 99 | 1012.6 |
| 20260509134856 | 50 | 223 | 0.0 | 0.0 | 0.00 | 0.03 | 0.03 | 99 | 1012.6 |
| 20260509134353 | 50 | 245 | 0.0 | 0.0 | 0.00 | 0.03 | 0.03 | 99 | 1012.7 |
| 20260509133850 | 50 | 240 | 0.0 | 0.0 | 0.00 | 0.03 | 0.03 | 99 | 1012.8 |
| 20260509133346 | 50 | 236 | 0.0 | 0.0 | 0.00 | 0.03 | 0.03 | 99 | 1012.7 |
| 20260509132845 | 50 | 249 | 0.0 | 0.9 | 0.00 | 0.03 | 0.03 | 99 | 1012.8 |
| 20260509132343 | 50 | 250 | 0.0 | 0.0 | 0.07 | 0.03 | 0.03 | 99 | 1012.7 |
| 20260509131840 | 50 | 248 | 0.9 | 0.9 | 0.07 | 0.03 | 0.03 | 99 | 1012.8 |
| 20260509131336 | 50 | 249 | 0.0 | 0.0 | 0.00 | 0.02 | 0.02 | 99 | 1012.8 |
| 20260509130833 | 50 | 249 | 0.0 | 0.0 | 0.05 | 0.02 | 0.02 | 99 | 1012.5 |
| 20260509130329 | 50 | 245 | 0.0 | 0.0 | 0.05 | 0.02 | 0.02 | 99 | 1012.9 |
| 20260509125826 | 50 | 239 | 0.0 | 0.0 | 0.00 | 0.01 | 0.01 | 99 | 1012.7 |
| 20260509125322 | 50 | 249 | 0.9 | 0.9 | 0.00 | 0.01 | 0.01 | 98 | 1012.7 |
| 20260509124818 | 50 | 228 | 0.0 | 0.0 | 0.00 | 0.01 | 0.01 | 98 | 1012.4 |
| 20260509124315 | 50 | 234 | 0.0 | 0.0 | 0.00 | 0.01 | 0.01 | 98 | 1012.7 |
| 20260509123814 | 50 | 236 | 0.0 | 0.0 | 0.07 | 0.01 | 0.01 | 98 | 1012.5 |
| 20260509123310 | 50 | 225 | 0.0 | 0.0 | 0.07 | 0.01 | 0.01 | 98 | 1012.6 |
| 20260509122806 | 50 | 239 | 0.0 | 0.0 | 0.00 | 0.00 | 0.00 | 98 | 1012.8 |
| 20260509122306 | 50 | 279 | 0.9 | 0.9 | 0.00 | 0.00 | 0.00 | 98 | 1012.6 |
| 20260509121800 | 50 | 246 | 0.0 | 0.0 | 0.00 | 0.00 | 0.00 | 98 | 1012.7 |
| 20260509121257 | 50 | 231 | 0.9 | 0.9 | 0.00 | 0.00 | 0.00 | 98 | 1012.9 |
| 20260509120755 | 50 | 249 | 0.9 | 0.9 | 0.00 | 0.00 | 0.00 | 98 | 1012.8 |
| 20260509120253 | 50 | 251 | 0.9 | 0.9 | 0.00 | 0.00 | 0.00 | 99 | 1012.7 |
| 20260509115751 | 50 | 253 | 0.9 | 1.7 | 0.00 | 0.00 | 0.00 | 98 | 1012.8 |
| 20260509115247 | 49 | 242 | 0.0 | 0.0 | 0.00 | 0.00 | 0.00 | 99 | 1012.6 |
| 20260509114745 | 49 | 268 | 0.9 | 1.7 | 0.00 | 0.00 | 0.00 | 99 | 1012.6 |
| 20260509114244 | 49 | 246 | 0.0 | 0.9 | 0.00 | 0.00 | 0.00 | 99 | 1012.6 |
| 20260509113742 | 49 | 257 | 0.9 | 0.9 | 0.00 | 0.00 | 0.00 | 99 | 1012.5 |
| 20260509113239 | 49 | 256 | 0.9 | 0.9 | 0.00 | 0.00 | 0.00 | 99 | 1012.5 |
| 20260509112736 | 49 | 265 | 0.9 | 1.7 | 0.00 | 0.00 | 0.00 | 98 | 1012.7 |
| 20260509112233 | 50 | 263 | 0.9 | 0.9 | 0.00 | 0.00 | 0.00 | 97 | 1012.7 |
| 20260509111730 | 50 | 251 | 0.0 | 0.0 | 0.00 | 0.00 | 0.00 | 96 | 1012.5 |
| 20260509111227 | 49 | 245 | 0.0 | 0.0 | 0.00 | 0.00 | 0.00 | 95 | 1012.6 |
| 20260509110724 | 49 | 244 | 0.0 | 0.0 | 0.00 | 0.00 | 0.00 | 95 | 1012.6 |
| 20260509110221 | 49 | 245 | 0.0 | 0.0 | 0.00 | 0.00 | 0.00 | 95 | 1012.6 |
| 20260509105719 | 49 | 224 | 0.0 | 0.0 | 0.00 | 0.00 | 0.00 | 95 | 1012.7 |
| 20260509105216 | 49 | 223 | 0.0 | 0.9 | 0.00 | 0.00 | 0.00 | 95 | 1012.8 |
| 20260509104713 | 49 | 253 | 0.0 | 0.0 | 0.00 | 0.00 | 0.00 | 95 | 1012.9 |
| 20260509104210 | 49 | 246 | 0.0 | 0.0 | 0.00 | 0.00 | 0.00 | 94 | 1012.9 |
| 20260509103708 | 49 | 247 | 0.0 | 0.0 | 0.00 | 0.00 | 0.00 | 94 | 1012.9 |
| 20260509103205 | 50 | 250 | 0.0 | 0.9 | 0.00 | 0.00 | 0.00 | 93 | 1012.9 |
| 20260509102704 | 50 | 245 | 0.0 | 0.0 | 0.00 | 0.00 | 0.00 | 93 | 1012.9 |
| 20260509102200 | 50 | 248 | 0.0 | 0.0 | 0.00 | 0.00 | 0.00 | 92 | 1012.9 |
| 20260509101656 | 50 | 248 | 0.9 | 1.7 | 0.00 | 0.00 | 0.00 | 91 | 1012.7 |
| 20260509101153 | 50 | 257 | 0.9 | 0.9 | 0.00 | 0.00 | 0.00 | 91 | 1013.0 |
| 20260509100650 | 50 | 253 | 1.7 | 1.7 | 0.00 | 0.00 | 0.00 | 91 | 1012.9 |
| 20260509100147 | 50 | 296 | 1.7 | 1.7 | 0.00 | 0.00 | 0.00 | 90 | 1013.0 |
| 20260509095644 | 50 | 260 | 3.5 | 4.3 | 0.00 | 0.00 | 0.00 | 90 | 1013.0 |
| 20260509095141 | 51 | 249 | 2.6 | 4.3 | 0.00 | 0.00 | 0.00 | 89 | 1012.9 |
| 20260509094637 | 51 | 285 | 3.5 | 5.2 | 0.00 | 0.00 | 0.00 | 89 | 1013.0 |
| 20260509094135 | 51 | 321 | 7.0 | 7.8 | 0.00 | 0.00 | 0.00 | 87 | 1013.1 |
| 20260509093633 | 52 | 284 | 4.3 | 5.2 | 0.00 | 0.00 | 0.00 | 86 | 1013.1 |
| 20260509093130 | 52 | 326 | 5.2 | 6.1 | 0.00 | 0.00 | 0.00 | 85 | 1012.7 |
| 20260509092628 | 52 | 269 | 2.6 | 2.6 | 0.00 | 0.00 | 0.00 | 83 | 1012.9 |
| 20260509092126 | 50 | 246 | 1.7 | 1.7 | 0.00 | 0.00 | 0.00 | 85 | 1013.0 |
| 20260509091624 | 50 | 239 | 0.0 | 0.0 | 0.00 | 0.00 | 0.00 | 87 | 1012.7 |
| 20260509091120 | 49 | 283 | 0.0 | 0.0 | 0.00 | 0.00 | 0.00 | 88 | 1012.6 |
| 20260509090618 | 48 | 259 | 0.0 | 0.0 | 0.00 | 0.00 | 0.00 | 91 | 1012.5 |
| 20260509090115 | 48 | 251 | 0.0 | 0.9 | 0.00 | 0.00 | 0.00 | 93 | 1012.5 |
| 20260509085612 | 47 | 255 | 0.0 | 0.0 | 0.00 | 0.00 | 0.00 | 95 | 1012.4 |
| 20260509085108 | 47 | 252 | 0.0 | 0.0 | 0.00 | 0.00 | 0.00 | 96 | 1012.4 |
| 20260509084605 | 47 | 248 | 0.0 | 0.0 | 0.00 | 0.00 | 0.00 | 97 | 1012.3 |
| 20260509084102 | 47 | 253 | 0.0 | 0.0 | 0.00 | 0.00 | 0.00 | 97 | 1012.3 |
| 20260509083600 | 47 | 223 | 0.0 | 0.0 | 0.00 | 0.00 | 0.00 | 97 | 1012.1 |
| 20260509083056 | 46 | 223 | 0.0 | 0.0 | 0.00 | 0.00 | 0.00 | 98 | 1012.4 |
| 20260509082554 | 46 | 223 | 0.0 | 0.0 | 0.00 | 0.00 | 0.00 | 98 | 1012.5 |
| 20260509082050 | 46 | 223 | 0.0 | 0.0 | 0.00 | 0.00 | 0.00 | 98 | 1012.1 |
| 20260509081547 | 46 | 223 | 0.0 | 0.0 | 0.00 | 0.00 | 0.00 | 98 | 1012.3 |
| 20260509081044 | 46 | 223 | 0.0 | 0.0 | 0.00 | 0.00 | 0.00 | 98 | 1012.0 |
| 20260509080542 | 46 | 223 | 0.0 | 0.0 | 0.00 | 0.00 | 0.00 | 98 | 1011.9 |
| 20260509080040 | 46 | 223 | 0.0 | 0.0 | 0.00 | 0.00 | 0.00 | 98 | 1012.0 |
| 20260509075537 | 46 | 223 | 0.0 | 0.0 | 0.00 | 0.00 | 0.00 | 98 | 1012.0 |
| 20260509075035 | 46 | 223 | 0.0 | 0.0 | 0.00 | 0.00 | 0.00 | 98 | 1012.1 |
| 20260509074532 | 46 | 222 | 0.0 | 0.0 | 0.00 | 0.00 | 0.00 | 98 | 1012.0 |
| 20260509074028 | 46 | 222 | 0.0 | 0.0 | 0.00 | 0.00 | 0.00 | 98 | 1012.3 |
| 20260509073525 | 46 | 221 | 0.0 | 0.0 | 0.00 | 0.00 | 0.00 | 98 | 1012.0 |
| 20260509073021 | 46 | 243 | 0.0 | 0.0 | 0.00 | 0.00 | 0.00 | 98 | 1012.1 |
| 20260509072518 | 46 | 245 | 0.0 | 0.0 | 0.00 | 0.00 | 0.00 | 98 | 1012.0 |
| 20260509072015 | 46 | 221 | 0.0 | 0.0 | 0.00 | 0.00 | 0.00 | 97 | 1011.9 |
| 20260509071512 | 46 | 221 | 0.0 | 0.0 | 0.00 | 0.00 | 0.00 | 97 | 1012.0 |
| 20260509071009 | 46 | 221 | 0.0 | 0.0 | 0.00 | 0.00 | 0.00 | 97 | 1012.0 |
| 20260509070506 | 46 | 221 | 0.0 | 0.0 | 0.00 | 0.00 | 0.00 | 97 | 1012.0 |
| 20260509070002 | 46 | 221 | 0.0 | 0.0 | 0.00 | 0.00 | 0.00 | 96 | 1011.7 |
| 20260509065458 | 46 | 221 | 0.0 | 0.0 | 0.00 | 0.00 | 0.00 | 95 | 1012.0 |
| 20260509064954 | 46 | 221 | 0.0 | 0.0 | 0.00 | 0.00 | 0.00 | 95 | 1012.0 |
| 20260509064452 | 46 | 221 | 0.0 | 0.0 | 0.00 | 0.00 | 0.00 | 95 | 1011.9 |
| 20260509063950 | 46 | 221 | 0.0 | 0.0 | 0.00 | 0.00 | 0.00 | 94 | 1011.9 |
| 20260509063445 | 47 | 221 | 0.0 | 0.0 | 0.00 | 0.00 | 0.00 | 94 | 1011.9 |
| 20260509062942 | 47 | 221 | 0.0 | 0.0 | 0.00 | 0.00 | 0.00 | 94 | 1012.0 |
| 20260509062439 | 47 | 221 | 0.0 | 0.0 | 0.00 | 0.00 | 0.00 | 93 | 1012.3 |
| 20260509061937 | 47 | 221 | 0.0 | 0.0 | 0.00 | 0.00 | 0.00 | 92 | 1012.3 |
| 20260509061434 | 48 | 221 | 0.0 | 0.0 | 0.00 | 0.00 | 0.00 | 92 | 1012.3 |
| 20260509060931 | 48 | 221 | 0.0 | 0.9 | 0.00 | 0.00 | 0.00 | 92 | 1012.5 |
| 20260509060429 | 48 | 223 | 0.0 | 0.0 | 0.00 | 0.00 | 0.00 | 92 | 1012.5 |
| 20260509055924 | 48 | 223 | 0.0 | 0.0 | 0.00 | 0.00 | 0.00 | 92 | 1012.6 |
| 20260509055419 | 48 | 223 | 0.0 | 0.0 | 0.00 | 0.00 | 0.00 | 91 | 1012.7 |
| 20260509054916 | 48 | 223 | 0.0 | 0.0 | 0.00 | 0.00 | 0.00 | 91 | 1012.9 |
| 20260509054413 | 48 | 224 | 0.0 | 0.0 | 0.00 | 0.00 | 0.00 | 91 | 1012.9 |
| 20260509053911 | 49 | 224 | 0.0 | 0.0 | 0.00 | 0.00 | 0.00 | 91 | 1013.0 |
| 20260509053409 | 49 | 224 | 0.0 | 0.0 | 0.00 | 0.00 | 0.00 | 92 | 1012.9 |
| 20260509052906 | 49 | 224 | 0.0 | 0.0 | 0.00 | 0.00 | 0.00 | 92 | 1013.3 |
| 20260509052403 | 49 | 224 | 0.0 | 0.0 | 0.00 | 0.00 | 0.00 | 92 | 1013.2 |
| 20260509051901 | 49 | 224 | 0.0 | 0.0 | 0.00 | 0.00 | 0.00 | 91 | 1012.9 |
| 20260509051359 | 50 | 224 | 0.0 | 0.0 | 0.00 | 0.00 | 0.00 | 91 | 1013.1 |
| 20260509050856 | 50 | 224 | 0.0 | 0.0 | 0.00 | 0.00 | 0.00 | 91 | 1013.1 |
| 20260509050352 | 50 | 224 | 0.0 | 0.0 | 0.00 | 0.00 | 0.00 | 90 | 1013.2 |
| 20260509045849 | 50 | 224 | 0.0 | 0.0 | 0.00 | 0.00 | 0.00 | 89 | 1013.0 |
| 20260509045346 | 50 | 224 | 0.0 | 0.0 | 0.00 | 0.00 | 0.00 | 89 | 1013.3 |
| 20260509044843 | 50 | 224 | 0.0 | 0.0 | 0.00 | 0.00 | 0.00 | 88 | 1013.1 |
| 20260509044341 | 50 | 224 | 0.0 | 0.0 | 0.00 | 0.00 | 0.00 | 88 | 1013.3 |
| 20260509043837 | 50 | 224 | 0.0 | 0.0 | 0.00 | 0.00 | 0.00 | 88 | 1013.3 |
| 20260509043333 | 50 | 224 | 0.0 | 0.0 | 0.00 | 0.00 | 0.00 | 88 | 1013.1 |
| 20260509042829 | 50 | 224 | 0.0 | 0.0 | 0.00 | 0.00 | 0.00 | 88 | 1013.3 |
| 20260509042326 | 50 | 224 | 0.0 | 0.0 | 0.00 | 0.00 | 0.00 | 88 | 1013.1 |
| 20260509041823 | 50 | 224 | 0.0 | 0.0 | 0.00 | 0.00 | 0.00 | 88 | 1013.4 |
| 20260509041320 | 50 | 224 | 0.0 | 0.0 | 0.00 | 0.00 | 0.00 | 88 | 1013.4 |
| 20260509040818 | 50 | 226 | 0.0 | 0.0 | 0.00 | 0.00 | 0.00 | 88 | 1013.3 |
| 20260509040315 | 50 | 226 | 0.0 | 0.0 | 0.00 | 0.00 | 0.00 | 88 | 1013.4 |
| 20260509035812 | 50 | 226 | 0.0 | 0.0 | 0.00 | 0.00 | 0.00 | 88 | 1013.4 |
| 20260509035309 | 50 | 226 | 0.0 | 0.0 | 0.00 | 0.00 | 0.00 | 88 | 1013.4 |
| 20260509034805 | 50 | 225 | 0.0 | 0.0 | 0.00 | 0.00 | 0.00 | 87 | 1013.1 |
| 20260509034303 | 50 | 225 | 0.0 | 0.0 | 0.00 | 0.00 | 0.00 | 87 | 1013.3 |
| 20260509033800 | 51 | 225 | 0.0 | 0.0 | 0.00 | 0.00 | 0.00 | 86 | 1013.4 |
| 20260509033257 | 51 | 225 | 0.0 | 0.0 | 0.00 | 0.00 | 0.00 | 85 | 1013.1 |
| 20260509032754 | 51 | 225 | 0.0 | 0.0 | 0.00 | 0.00 | 0.00 | 85 | 1013.3 |
| 20260509032251 | 51 | 225 | 0.0 | 0.0 | 0.00 | 0.00 | 0.00 | 85 | 1013.3 |
| 20260509031748 | 51 | 226 | 0.0 | 0.0 | 0.00 | 0.00 | 0.00 | 85 | 1013.3 |
| 20260509031246 | 51 | 227 | 0.0 | 0.0 | 0.00 | 0.00 | 0.00 | 85 | 1013.3 |
| 20260509030744 | 51 | 227 | 0.0 | 0.0 | 0.00 | 0.00 | 0.00 | 85 | 1013.5 |
| 20260509030241 | 51 | 227 | 0.0 | 0.0 | 0.00 | 0.00 | 0.00 | 85 | 1013.6 |
| 20260509025738 | 51 | 227 | 0.0 | 0.0 | 0.00 | 0.00 | 0.00 | 84 | 1013.4 |
| 20260509025233 | 51 | 227 | 0.0 | 0.0 | 0.00 | 0.00 | 0.00 | 84 | 1013.3 |
| 20260509024728 | 51 | 227 | 0.0 | 0.0 | 0.00 | 0.00 | 0.00 | 84 | 1013.3 |
| 20260509024224 | 51 | 227 | 0.0 | 0.0 | 0.00 | 0.00 | 0.00 | 84 | 1013.4 |
| 20260509023722 | 51 | 227 | 0.0 | 0.0 | 0.00 | 0.00 | 0.00 | 83 | 1013.7 |
| 20260509023219 | 52 | 227 | 0.0 | 0.0 | 0.00 | 0.00 | 0.00 | 82 | 1013.5 |
| 20260509022715 | 52 | 227 | 0.0 | 0.0 | 0.00 | 0.00 | 0.00 | 81 | 1013.5 |
| 20260509022213 | 52 | 227 | 0.0 | 0.0 | 0.00 | 0.00 | 0.00 | 80 | 1013.5 |
| 20260509021710 | 52 | 227 | 0.0 | 0.0 | 0.00 | 0.00 | 0.00 | 80 | 1013.7 |
| 20260509021208 | 52 | 227 | 0.0 | 0.0 | 0.00 | 0.00 | 0.00 | 80 | 1013.6 |
| 20260509020705 | 52 | 227 | 0.0 | 0.0 | 0.00 | 0.00 | 0.00 | 77 | 1013.5 |
| 20260509020202 | 52 | 227 | 0.0 | 0.0 | 0.00 | 0.00 | 0.00 | 77 | 1013.4 |
| 20260509015700 | 52 | 227 | 0.0 | 0.0 | 0.00 | 0.00 | 0.00 | 78 | 1013.5 |
| 20260509015158 | 53 | 228 | 0.0 | 0.0 | 0.00 | 0.00 | 0.00 | 78 | 1013.4 |
| 20260509014654 | 53 | 228 | 0.0 | 0.0 | 0.00 | 0.00 | 0.00 | 78 | 1013.5 |
| 20260509014151 | 53 | 231 | 0.0 | 0.0 | 0.00 | 0.00 | 0.00 | 77 | 1013.5 |
| 20260509013648 | 53 | 230 | 0.0 | 0.0 | 0.00 | 0.00 | 0.00 | 77 | 1013.5 |
| 20260509013144 | 53 | 225 | 0.0 | 0.0 | 0.00 | 0.00 | 0.00 | 77 | 1013.5 |
| 20260509012640 | 53 | 223 | 0.0 | 0.0 | 0.00 | 0.00 | 0.00 | 76 | 1013.4 |
| 20260509012137 | 53 | 228 | 0.0 | 0.0 | 0.00 | 0.00 | 0.00 | 76 | 1013.2 |
| 20260509011635 | 53 | 245 | 0.0 | 0.0 | 0.00 | 0.00 | 0.00 | 76 | 1013.6 |
| 20260509011132 | 54 | 246 | 0.0 | 0.0 | 0.00 | 0.00 | 0.00 | 75 | 1013.4 |
| 20260509010630 | 54 | 224 | 0.0 | 0.0 | 0.00 | 0.00 | 0.00 | 72 | 1013.5 |
| 20260509010126 | 54 | 210 | 0.0 | 0.9 | 0.00 | 0.00 | 0.00 | 72 | 1013.4 |
| 20260509005624 | 54 | 214 | 0.9 | 0.9 | 0.00 | 0.00 | 0.00 | 72 | 1013.2 |
| 20260509005120 | 55 | 223 | 0.0 | 0.0 | 0.00 | 0.00 | 0.00 | 70 | 1013.4 |
| 20260509004616 | 55 | 223 | 0.0 | 0.0 | 0.00 | 0.00 | 0.00 | 69 | 1013.3 |
| 20260509004113 | 56 | 223 | 0.0 | 0.9 | 0.00 | 0.00 | 0.00 | 67 | 1013.1 |
| 20260509003612 | 56 | 224 | 0.0 | 0.0 | 0.00 | 0.00 | 0.00 | 65 | 1013.1 |
| 20260509003109 | 56 | 223 | 0.0 | 0.0 | 0.00 | 0.00 | 0.00 | 64 | 1013.1 |
| 20260509002606 | 56 | 218 | 0.0 | 0.0 | 0.00 | 0.00 | 0.00 | 65 | 1013.0 |
| 20260509002103 | 56 | 249 | 0.0 | 0.0 | 0.00 | 0.00 | 0.00 | 65 | 1013.2 |
| 20260509001601 | 56 | 249 | 0.0 | 0.0 | 0.00 | 0.00 | 0.00 | 66 | 1013.0 |
| 20260509001056 | 57 | 249 | 0.0 | 0.0 | 0.00 | 0.00 | 0.00 | 65 | 1013.4 |
| 20260509000555 | 57 | 246 | 0.0 | 0.0 | 0.00 | 0.00 | 0.00 | 64 | 1013.1 |
| 20260509000050 | 57 | 246 | 0.0 | 0.0 | 0.00 | 0.00 | 0.00 | 63 | 1013.1 |
| 20260508235548 | 57 | 275 | 0.0 | 0.0 | 0.00 | 0.00 | 0.00 | 64 | 1013.0 |
| 20260508235044 | 59 | 262 | 0.9 | 0.9 | 0.00 | 0.00 | 0.00 | 61 | 1012.9 |
| 20260508234542 | 59 | 267 | 0.9 | 0.9 | 0.00 | 0.00 | 0.00 | 60 | 1012.8 |
| 20260508234039 | 60 | 279 | 2.6 | 2.6 | 0.00 | 0.00 | 0.00 | 60 | 1013.0 |
| 20260508233538 | 61 | 250 | 0.0 | 0.0 | 0.00 | 0.00 | 0.00 | 58 | 1012.9 |
| 20260508233035 | 60 | 259 | 0.0 | 0.9 | 0.00 | 0.00 | 0.00 | 59 | 1012.9 |
| 20260508232532 | 59 | 268 | 1.7 | 1.7 | 0.00 | 0.00 | 0.00 | 61 | 1012.8 |
| 20260508232029 | 59 | 261 | 0.9 | 1.7 | 0.00 | 0.00 | 0.00 | 58 | 1012.6 |
| 20260508231527 | 59 | 244 | 1.7 | 2.6 | 0.00 | 0.00 | 0.00 | 59 | 1012.7 |
| 20260508231023 | 59 | 286 | 3.5 | 4.3 | 0.00 | 0.00 | 0.00 | 61 | 1012.6 |
| 20260508230520 | 59 | 291 | 5.2 | 6.1 | 0.00 | 0.00 | 0.00 | 59 | 1012.7 |
| 20260508230017 | 59 | 272 | 3.5 | 5.2 | 0.00 | 0.00 | 0.00 | 60 | 1012.9 |
| 20260508225514 | 59 | 271 | 1.7 | 1.7 | 0.00 | 0.00 | 0.00 | 59 | 1012.8 |
| 20260508225010 | 60 | 259 | 1.7 | 1.7 | 0.00 | 0.00 | 0.00 | 59 | 1012.8 |
| 20260508224509 | 61 | 235 | 5.2 | 9.6 | 0.00 | 0.00 | 0.00 | 57 | 1012.5 |
| 20260508224005 | 62 | 263 | 4.3 | 5.2 | 0.00 | 0.00 | 0.00 | 57 | 1012.6 |
| 20260508223504 | 62 | 262 | 0.9 | 0.9 | 0.00 | 0.00 | 0.00 | 59 | 1012.8 |
| 20260508223001 | 62 | 260 | 1.7 | 1.7 | 0.00 | 0.00 | 0.00 | 60 | 1012.7 |
| 20260508222458 | 60 | 274 | 1.7 | 1.7 | 0.00 | 0.00 | 0.00 | 60 | 1012.7 |
| 20260508221954 | 62 | 261 | 0.0 | 0.9 | 0.00 | 0.00 | 0.00 | 57 | 1012.6 |
| 20260508221450 | 62 | 254 | 1.7 | 1.7 | 0.00 | 0.00 | 0.00 | 59 | 1012.8 |
| 20260508220946 | 60 | 236 | 0.0 | 0.0 | 0.00 | 0.00 | 0.00 | 61 | 1013.0 |
| 20260508220443 | 60 | 259 | 1.7 | 1.7 | 0.00 | 0.00 | 0.00 | 63 | 1013.4 |
| 20260508215939 | 58 | 254 | 0.0 | 0.0 | 0.00 | 0.00 | 0.00 | 61 | 1013.2 |
| 20260508215437 | 58 | 256 | 0.9 | 1.7 | 0.00 | 0.00 | 0.00 | 64 | 1013.3 |
| 20260508214933 | 57 | 251 | 0.9 | 0.9 | 0.00 | 0.00 | 0.00 | 66 | 1013.2 |
| 20260508214431 | 57 | 252 | 1.7 | 1.7 | 0.00 | 0.00 | 0.00 | 64 | 1013.2 |
| 20260508213926 | 57 | 277 | 2.6 | 2.6 | 0.00 | 0.00 | 0.00 | 67 | 1013.3 |
| 20260508213424 | 57 | 250 | 1.7 | 1.7 | 0.00 | 0.00 | 0.00 | 65 | 1013.6 |
| 20260508212919 | 57 | 246 | 0.0 | 0.0 | 0.00 | 0.00 | 0.00 | 66 | 1013.2 |
| 20260508212417 | 56 | 249 | 0.9 | 1.7 | 0.00 | 0.00 | 0.00 | 65 | 1013.7 |
| 20260508211913 | 56 | 266 | 1.7 | 1.7 | 0.00 | 0.00 | 0.00 | 67 | 1013.9 |
| 20260508211408 | 56 | 268 | 0.9 | 1.7 | 0.00 | 0.00 | 0.00 | 66 | 1013.7 |
| 20260508210906 | 56 | 258 | 2.6 | 2.6 | 0.00 | 0.00 | 0.00 | 68 | 1013.6 |
| 20260508210402 | 56 | 258 | 1.7 | 1.7 | 0.00 | 0.00 | 0.00 | 66 | 1013.7 |
| 20260508205858 | 56 | 244 | 1.7 | 1.7 | 0.00 | 0.00 | 0.00 | 66 | 1013.6 |
| 20260508205355 | 56 | 252 | 0.9 | 0.9 | 0.00 | 0.00 | 0.00 | 67 | 1013.7 |
| 20260508204851 | 56 | 255 | 2.6 | 2.6 | 0.00 | 0.00 | 0.00 | 64 | 1013.8 |
| 20260508204349 | 56 | 294 | 2.6 | 2.6 | 0.00 | 0.00 | 0.00 | 65 | 1014.1 |
| 20260508203844 | 56 | 296 | 2.6 | 2.6 | 0.00 | 0.00 | 0.00 | 66 | 1014.1 |
| 20260508203341 | 56 | 285 | 2.6 | 2.6 | 0.00 | 0.00 | 0.00 | 64 | 1013.7 |
| 20260508202836 | 56 | 312 | 3.5 | 4.3 | 0.00 | 0.00 | 0.00 | 65 | 1014.1 |
| 20260508202334 | 56 | 273 | 2.6 | 4.3 | 0.00 | 0.00 | 0.00 | 64 | 1014.2 |